Simultaneous Nadir Overpasses (SNOs) Predictions

Prediction of SNOs between LANDSAT-8 and NOAA-19 Satellite Orbit:

Table of predicted SNOs for the next 14.0 days since TLE Epoch: 6/28/2014
Index Date (LANDSAT-8) Time (LANDSAT-8) Lat,Lon (LANDSAT-8) SZA (LANDSAT-8 ) Date (NOAA-19) Time (NOAA-19) Lat,Lon (NOAA-19) SZA (NOAA-19 ) Distance(km) Time Diff (sec)
1 06/28/2014 12:12:44 -72.04, 176.14 131.32 06/28/2014 12:11:53 -72.03, 176.15 131.32 0.49 51
2 06/28/2014 13:02:11 71.95, -16.37 48.59 06/28/2014 13:02:55 71.92, -16.38 48.56 3.44 44
3 06/30/2014 16:57:01 -72.16, 105.29 131.08 06/30/2014 16:55:48 -72.25, 104.78 130.97 19.93 73
4 06/30/2014 17:46:30 71.96, -87.42 48.73 06/30/2014 17:46:46 71.97, -87.41 48.74 0.35 16
5 07/02/2014 22:30:49 72.03,-158.39 48.95 07/02/2014 22:30:37 72.02,-158.46 48.95 2.58 12
6 07/02/2014 23:20:20 -71.86, 8.96 131.21 07/02/2014 23:21:33 -71.79, 9.23 131.28 12.09 73
7 07/05/2014 03:15:10 72.03, 130.53 49.15 07/05/2014 03:14:27 72.04, 130.58 49.16 1.73 43
8 07/05/2014 04:04:40 -71.92, -62.02 130.96 07/05/2014 04:05:26 -71.93, -61.96 130.96 2.17 46
9 07/07/2014 07:59:31 72.08, 59.54 49.42 07/07/2014 07:58:18 72.11, 59.50 49.45 3.53 73
10 07/07/2014 08:49:01 -71.97,-133.02 130.69 07/07/2014 08:49:17 -71.97,-132.97 130.69 1.76 16
11 07/09/2014 13:33:23 -72.02, 155.97 130.39 07/09/2014 13:33:08 -72.01, 156.00 130.39 1.21 15
12 07/09/2014 14:22:53 71.76, -36.83 49.37 07/09/2014 14:24:04 71.75, -36.25 49.35 20.19 71
13 07/11/2014 18:17:46 -72.06,
